Weather History for Menominee, MI

Change the Weather History Date:

Friday, April 5, 2013

  Actual Average Record
Temperature  
Mean Temperature 30 °F -  
Max Temperature 35 °F 48 °F 62 °F (1951)
Min Temperature 26 °F 28 °F 12 °F (1975)
Degree Days  
Heating Degree Days 34    
Moisture  
Dew Point 19 °F    
Average Humidity 60    
Maximum Humidity 86    
Minimum Humidity 41    
Precipitation  
Precipitation 0.00 in - - ()
Sea Level Pressure  
Sea Level Pressure 30.20 in    
Wind  
Wind Speed 7 mph (East)    
Max Wind Speed 13 mph    
Max Gust Speed -    
Visibility 10 miles    
Events      
Averages and records for this station are not official NWS values.
T = Trace of Precipitation, MM = Missing Value Source: NWS Daily Summary

Daily Weather History Graph

Daily Weather History Graph

Search for Another Location

Airport:

Trip Planner

Search our weather history database for the weather conditions in past years. The results will help you decide how hot, cold, wet, or windy it might be!

Date:

Astronomy

Apr. 05, 2013 Rise Set
Actual Time 6:23 AM CDT 7:23 PM CDT
Civil Twilight 5:53 AM CDT 7:53 PM CDT
Nautical Twilight 5:17 AM CDT 8:29 PM CDT
Astronomical Twilight 4:39 AM CDT 9:07 PM CDT
Moon 3:42 AM CDT (4/5) 2:35 PM CDT (4/5)
Length of Visible Light 14h 00m
Length of Day
13h 00m
Waning Crescent, 23% of the Moon is Illuminated
Apr 5
Waning Crescent
Apr 10
New
Apr 18
First Quarter
Apr 25
Full
May 2
Last Quarter

Hourly Weather History & Observations

Time (CDT) Temp. Windchill Dew Point Humidity Pressure Visibility Wind Dir Wind Speed Gust Speed Precip Events Conditions
12:15 AM 35.6 °F 32.8 °F 17.6 °F 48% 30.07 in 10.0 mi North 3.5 mph - N/A   Clear
12:35 AM 33.8 °F - 19.4 °F 56% 30.07 in 10.0 mi Calm Calm - N/A   Clear
12:55 AM 33.8 °F 30.8 °F 19.4 °F 56% 30.08 in 10.0 mi NNW 3.5 mph - N/A   Clear
1:15 AM 30.2 °F 26.7 °F 19.4 °F 64% 30.09 in 10.0 mi NNW 3.5 mph - N/A   Clear
1:35 AM 32.0 °F 27.5 °F 19.4 °F 60% 30.09 in 10.0 mi North 4.6 mph - N/A   Clear
1:55 AM 30.2 °F 23.4 °F 17.6 °F 60% 30.10 in 10.0 mi NNE 6.9 mph - N/A   Clear
2:15 AM 30.2 °F 24.3 °F 19.4 °F 64% 30.10 in 10.0 mi NNE 5.8 mph - N/A   Clear
2:35 AM 30.2 °F 25.4 °F 19.4 °F 64% 30.11 in 10.0 mi NNE 4.6 mph - N/A   Clear
2:55 AM 30.2 °F 26.7 °F 19.4 °F 64% 30.11 in 10.0 mi North 3.5 mph - N/A   Clear
3:15 AM 30.2 °F 25.4 °F 19.4 °F 64% 30.12 in 10.0 mi North 4.6 mph - N/A   Clear
3:35 AM 28.4 °F 21.2 °F 19.4 °F 69% 30.13 in 10.0 mi NNE 6.9 mph - N/A   Clear
3:55 AM 28.4 °F 24.6 °F 19.4 °F 69% 30.14 in 10.0 mi North 3.5 mph - N/A   Clear
4:15 AM 28.4 °F 22.2 °F 19.4 °F 69% 30.15 in 10.0 mi NNE 5.8 mph - N/A   Clear
4:35 AM 28.4 °F 21.2 °F 19.4 °F 69% 30.16 in 10.0 mi NNE 6.9 mph - N/A   Clear
4:55 AM 28.4 °F 21.2 °F 17.6 °F 64% 30.17 in 10.0 mi North 6.9 mph - N/A   Clear
5:15 AM 28.4 °F 20.4 °F 19.4 °F 69% 30.18 in 10.0 mi North 8.1 mph - N/A   Clear
5:35 AM 28.4 °F 19.7 °F 17.6 °F 64% 30.19 in 10.0 mi North 9.2 mph - N/A   Clear
5:55 AM 28.4 °F 21.2 °F 17.6 °F 64% 30.19 in 10.0 mi NNE 6.9 mph - N/A   Clear
6:15 AM 28.4 °F 20.4 °F 17.6 °F 64% 30.20 in 10.0 mi NNE 8.1 mph - N/A   Clear
6:35 AM 26.6 °F 19.1 °F 17.6 °F 69% 30.21 in 10.0 mi NNE 6.9 mph - N/A   Clear
6:55 AM 26.6 °F 21.2 °F 17.6 °F 69% 30.22 in 10.0 mi NNE 4.6 mph - N/A   Clear
7:15 AM 26.6 °F 20.0 °F 17.6 °F 69% 30.23 in 10.0 mi North 5.8 mph - N/A   Clear
7:35 AM 28.4 °F 22.2 °F 19.4 °F 69% 30.24 in 10.0 mi North 5.8 mph - N/A   Clear
7:55 AM 28.4 °F 21.2 °F 17.6 °F 64% 30.25 in 10.0 mi North 6.9 mph - N/A   Clear
8:15 AM 30.2 °F 22.6 °F 17.6 °F 60% 30.25 in 10.0 mi NNE 8.1 mph - N/A   Clear
8:35 AM 30.2 °F 22.6 °F 17.6 °F 60% 30.25 in 10.0 mi NNE 8.1 mph - N/A   Clear
8:55 AM 30.2 °F 20.8 °F 15.8 °F 55% 30.26 in 10.0 mi North 11.5 mph - N/A   Clear
9:15 AM 30.2 °F 20.8 °F 15.8 °F 55% 30.26 in 10.0 mi NNE 11.5 mph - N/A   Clear
9:35 AM 30.2 °F 21.9 °F 14.0 °F 51% 30.26 in 10.0 mi NE 9.2 mph - N/A   Clear
9:55 AM 32.0 °F 24.8 °F 14.0 °F 48% 30.26 in 10.0 mi North 8.1 mph - N/A   Clear
10:15 AM 32.0 °F 22.5 °F 15.8 °F 51% 30.27 in 10.0 mi North 12.7 mph - N/A   Clear
10:35 AM 33.8 °F 27.7 °F 15.8 °F 48% 30.27 in 10.0 mi NNW 6.9 mph - N/A   Clear
10:55 AM 33.8 °F 26.4 °F 14.0 °F 44% 30.27 in 10.0 mi NNW 9.2 mph - N/A   Partly Cloudy
11:15 AM 33.8 °F 27.0 °F 12.2 °F 41% 30.27 in 10.0 mi NNW 8.1 mph - N/A   Partly Cloudy
11:35 AM 33.8 °F 25.8 °F 17.6 °F 52% 30.27 in 10.0 mi ESE 10.4 mph - N/A   Clear
11:55 AM 33.8 °F 25.3 °F 19.4 °F 56% 30.27 in 10.0 mi ESE 11.5 mph - N/A   Clear
12:15 PM 33.8 °F 26.4 °F 17.6 °F 52% 30.26 in 10.0 mi ESE 9.2 mph - N/A   Clear
12:35 PM 33.8 °F 24.8 °F 19.4 °F 56% 30.26 in 10.0 mi ESE 12.7 mph - N/A   Clear
12:55 PM 33.8 °F 25.3 °F 19.4 °F 56% 30.25 in 10.0 mi SE 11.5 mph - N/A   Clear
1:15 PM 33.8 °F 25.3 °F 17.6 °F 52% 30.24 in 10.0 mi SE 11.5 mph - N/A   Clear
1:35 PM 33.8 °F 24.8 °F 17.6 °F 52% 30.24 in 10.0 mi ESE 12.7 mph - N/A   Clear
1:55 PM 33.8 °F 27.0 °F 19.4 °F 56% 30.23 in 10.0 mi SE 8.1 mph - N/A   Clear
2:15 PM 35.6 °F 29.2 °F 17.6 °F 48% 30.23 in 10.0 mi SSE 8.1 mph - N/A   Clear
2:35 PM 35.6 °F 29.2 °F 17.6 °F 48% 30.22 in 10.0 mi SE 8.1 mph - N/A   Clear
2:55 PM 35.6 °F 29.9 °F 17.6 °F 48% 30.22 in 10.0 mi SSE 6.9 mph - N/A   Clear
3:15 PM 35.6 °F 28.0 °F 17.6 °F 48% 30.21 in 10.0 mi South 10.4 mph - N/A   Clear
3:35 PM 35.6 °F 28.0 °F 17.6 °F 48% 30.21 in 10.0 mi SSE 10.4 mph - N/A   Clear
3:55 PM 35.6 °F 27.1 °F 17.6 °F 48% 30.20 in 10.0 mi SSE 12.7 mph - N/A   Clear
4:15 PM 35.6 °F 28.0 °F 15.8 °F 44% 30.20 in 10.0 mi SSE 10.4 mph - N/A   Clear
4:35 PM 35.6 °F 27.5 °F 15.8 °F 44% 30.21 in 10.0 mi South 11.5 mph - N/A   Clear
4:55 PM 35.6 °F 28.0 °F 15.8 °F 44% 30.21 in 10.0 mi South 10.4 mph - N/A   Clear
5:15 PM 35.6 °F 28.6 °F 17.6 °F 48% 30.21 in 10.0 mi South 9.2 mph - N/A   Clear
5:35 PM 35.6 °F 28.6 °F 15.8 °F 44% 30.21 in 10.0 mi South 9.2 mph - N/A   Clear
5:55 PM 35.6 °F 29.2 °F 15.8 °F 44% 30.21 in 10.0 mi South 8.1 mph - N/A   Clear
6:15 PM 35.6 °F 29.2 °F 15.8 °F 44% 30.21 in 10.0 mi SSE 8.1 mph - N/A   Clear
6:35 PM 33.8 °F 27.0 °F 19.4 °F 56% 30.21 in 10.0 mi SSE 8.1 mph - N/A   Clear
6:55 PM 33.8 °F 25.8 °F 21.2 °F 60% 30.20 in 10.0 mi SSE 10.4 mph - N/A   Clear
7:15 PM 33.8 °F 27.7 °F 23.0 °F 65% 30.20 in 10.0 mi South 6.9 mph - N/A   Clear
7:35 PM 32.0 °F 24.8 °F 23.0 °F 69% 30.20 in 10.0 mi South 8.1 mph - N/A   Clear
7:55 PM 32.0 °F 24.8 °F 23.0 °F 69% 30.20 in 10.0 mi South 8.1 mph - N/A   Clear
8:15 PM 32.0 °F 24.8 °F 24.8 °F 75% 30.20 in 10.0 mi SSE 8.1 mph - N/A   Mostly Cloudy
8:35 PM 32.0 °F 24.2 °F 24.8 °F 75% 30.20 in 10.0 mi South 9.2 mph - N/A   Mostly Cloudy
8:55 PM 30.2 °F 22.6 °F 23.0 °F 75% 30.20 in 10.0 mi South 8.1 mph - N/A   Mostly Cloudy
9:15 PM 30.2 °F 22.6 °F 24.8 °F 80% 30.20 in 10.0 mi South 8.1 mph - N/A   Scattered Clouds
9:35 PM 30.2 °F 22.6 °F 23.0 °F 75% 30.20 in 10.0 mi South 8.1 mph - N/A   Scattered Clouds
9:55 PM 30.2 °F 24.3 °F 23.0 °F 75% 30.20 in 10.0 mi South 5.8 mph - N/A   Mostly Cloudy
10:15 PM 30.2 °F 23.4 °F 24.8 °F 80% 30.19 in 10.0 mi South 6.9 mph - N/A   Overcast
10:35 PM 30.2 °F 23.4 °F 24.8 °F 80% 30.18 in 10.0 mi South 6.9 mph - N/A   Overcast
10:55 PM 30.2 °F 23.4 °F 24.8 °F 80% 30.18 in 10.0 mi South 6.9 mph - N/A   Overcast
11:15 PM 30.2 °F 24.3 °F 24.8 °F 80% 30.18 in 10.0 mi South 5.8 mph - N/A   Overcast
11:35 PM 30.2 °F 25.4 °F 26.6 °F 86% 30.18 in 10.0 mi South 4.6 mph - N/A   Overcast
11:55 PM 30.2 °F 24.3 °F 24.8 °F 80% 30.18 in 10.0 mi South 5.8 mph - N/A   Overcast